| time (UTC) | temp F | wind direction | speed MPH | gust MPH | rain 1hr in | rain 24hr in | rain mn in | humidity % | barometer mb |
| 20260903210448 | 61 | 9 | 2.0 | 2.0 | 0.00 | 0.12 | 0.12 | 82 | 1011.1 |
| 20260903204944 | 61 | 183 | 0.0 | 0.0 | 0.00 | 0.12 | 0.12 | 85 | 1011.2 |
| 20260903203443 | 61 | 183 | 0.0 | 0.0 | 0.00 | 0.12 | 0.12 | 84 | 1011.2 |
| 20260903201938 | 61 | 212 | 2.0 | 2.0 | 0.00 | 0.12 | 0.12 | 85 | 1011.3 |
| 20260903200433 | 59 | 162 | 2.0 | 3.0 | 0.00 | 0.12 | 0.12 | 87 | 1011.4 |
| 20260903194931 | 59 | 178 | 3.0 | 5.0 | 0.00 | 0.12 | 0.12 | 88 | 1011.7 |
| 20260903193430 | 58 | 189 | 6.0 | 8.0 | 0.00 | 0.12 | 0.12 | 90 | 1011.7 |
| 20260903191929 | 59 | 183 | 5.0 | 8.0 | 0.00 | 0.12 | 0.12 | 88 | 1011.6 |
| 20260903190424 | 60 | 211 | 5.0 | 7.0 | 0.00 | 0.12 | 0.12 | 85 | 1011.7 |
| 20260903184921 | 60 | 226 | 2.0 | 3.0 | 0.00 | 0.12 | 0.12 | 85 | 1011.5 |
| 20260903183418 | 60 | 211 | 3.0 | 3.0 | 0.00 | 0.12 | 0.12 | 90 | 1011.6 |
| 20260903181918 | 59 | 262 | 2.0 | 2.0 | 0.00 | 0.12 | 0.12 | 91 | 1011.4 |
| 20260903180412 | 58 | 251 | 2.0 | 2.0 | 0.00 | 0.12 | 0.12 | 93 | 1011.6 |
| 20260903174912 | 58 | 159 | 2.0 | 3.0 | 0.00 | 0.12 | 0.12 | 93 | 1011.5 |
| 20260903173409 | 58 | 179 | 2.0 | 2.0 | 0.05 | 0.12 | 0.12 | 94 | 1011.7 |
| 20260903171906 | 57 | 192 | 1.0 | 2.0 | 0.12 | 0.11 | 0.11 | 93 | 1011.7 |
| 20260903170401 | 58 | 183 | 3.0 | 5.0 | 0.00 | 0.08 | 0.08 | 88 | 1011.8 |
| 20260903164901 | 59 | 224 | 3.0 | 5.0 | 0.00 | 0.08 | 0.08 | 87 | 1011.7 |
| 20260903163357 | 59 | 183 | 3.0 | 6.0 | 0.00 | 0.08 | 0.08 | 86 | 1011.6 |
| 20260903161857 | 60 | 194 | 3.0 | 3.0 | 0.00 | 0.08 | 0.08 | 85 | 1011.7 |
| 20260903160352 | 59 | 200 | 2.0 | 2.0 | 0.00 | 0.08 | 0.08 | 87 | 1011.7 |
| 20260903154848 | 59 | 197 | 3.0 | 6.0 | 0.00 | 0.08 | 0.08 | 88 | 1011.8 |
| 20260903153346 | 59 | 162 | 2.0 | 2.0 | 0.00 | 0.08 | 0.08 | 91 | 1011.5 |
| 20260903151845 | 56 | 164 | 1.0 | 2.0 | 0.00 | 0.08 | 0.08 | 95 | 1011.7 |
| 20260903150340 | 55 | 216 | 2.0 | 2.0 | 0.00 | 0.08 | 0.08 | 95 | 1011.5 |
| 20260903144835 | 55 | 198 | 1.0 | 1.0 | 0.05 | 0.08 | 0.08 | 96 | 1011.7 |
| 20260903143335 | 55 | 152 | 1.0 | 2.0 | 0.07 | 0.07 | 0.07 | 97 | 1011.8 |
| 20260903141833 | 55 | 194 | 1.0 | 2.0 | 0.00 | 0.06 | 0.06 | 97 | 1011.6 |
| 20260903140330 | 55 | 169 | 1.0 | 1.0 | 0.12 | 0.06 | 0.06 | 96 | 1011.7 |
| 20260903134826 | 55 | 162 | 0.0 | 1.0 | 0.05 | 0.04 | 0.04 | 95 | 1011.5 |
| 20260903133321 | 55 | 195 | 0.0 | 0.0 | 0.00 | 0.02 | 0.02 | 95 | 1011.4 |
| 20260903131818 | 55 | 173 | 2.0 | 3.0 | 0.00 | 0.01 | 0.01 | 94 | 1011.2 |
| 20260903130318 | 55 | 186 | 0.0 | 1.0 | 0.00 | 0.01 | 0.01 | 95 | 1011.3 |
| 20260903124817 | 55 | 173 | 0.0 | 1.0 | 0.00 | 0.01 | 0.01 | 95 | 1011.0 |
| 20260903123317 | 55 | 171 | 1.0 | 2.0 | 0.00 | 0.01 | 0.01 | 95 | 1011.3 |
| 20260903121814 | 55 | 185 | 1.0 | 3.0 | 0.00 | 0.01 | 0.01 | 95 | 1011.4 |
| 20260903120311 | 55 | 156 | 2.0 | 3.0 | 0.00 | 0.01 | 0.01 | 95 | 1011.4 |
| 20260903114811 | 55 | 173 | 4.0 | 6.0 | 0.00 | 0.01 | 0.01 | 96 | 1011.4 |
| 20260903113309 | 55 | 173 | 1.0 | 2.0 | 0.00 | 0.01 | 0.01 | 97 | 1011.2 |
| 20260903111804 | 55 | 213 | 2.0 | 2.0 | 0.00 | 0.01 | 0.01 | 97 | 1011.6 |
| 20260903110303 | 55 | 182 | 2.0 | 3.0 | 0.00 | 0.00 | 0.00 | 95 | 1011.5 |
| 20260903104803 | 56 | 179 | 3.0 | 5.0 | 0.00 | 0.00 | 0.00 | 94 | 1011.4 |
| 20260903103302 | 56 | 147 | 3.0 | 3.0 | 0.00 | 0.00 | 0.00 | 94 | 1011.5 |
| 20260903101802 | 56 | 182 | 1.0 | 1.0 | 0.00 | 0.00 | 0.00 | 94 | 1011.6 |
| 20260903100259 | 56 | 170 | 1.0 | 2.0 | 0.00 | 0.00 | 0.00 | 94 | 1011.6 |
| 20260903094758 | 56 | 173 | 1.0 | 1.0 | 0.00 | 0.00 | 0.00 | 95 | 1011.6 |
| 20260903093255 | 56 | 185 | 1.0 | 2.0 | 0.00 | 0.00 | 0.00 | 95 | 1011.6 |
| 20260903091755 | 55 | 169 | 2.0 | 6.0 | 0.00 | 0.00 | 0.00 | 95 | 1011.7 |
| 20260903090250 | 56 | 174 | 0.0 | 1.0 | 0.00 | 0.00 | 0.00 | 95 | 1011.8 |
| 20260903084747 | 56 | 158 | 1.0 | 1.0 | 0.00 | 0.00 | 0.00 | 95 | 1011.9 |
| 20260903083243 | 56 | 179 | 1.0 | 2.0 | 0.00 | 0.00 | 0.00 | 94 | 1012.0 |
| 20260903081739 | 56 | 216 | 3.0 | 5.0 | 0.00 | 0.00 | 0.00 | 94 | 1011.9 |
| 20260903080239 | 55 | 157 | 3.0 | 5.0 | 0.00 | 0.00 | 0.00 | 95 | 1012.0 |
| 20260903074739 | 55 | 183 | 2.0 | 2.0 | 0.00 | 0.00 | 0.00 | 97 | 1012.1 |
| 20260903073236 | 55 | 170 | 2.0 | 2.0 | 0.00 | 0.00 | 0.00 | 96 | 1011.9 |
| 20260903071731 | 55 | 173 | 2.0 | 2.0 | 0.00 | 0.00 | 0.00 | 96 | 1011.8 |
| 20260903070227 | 55 | 181 | 3.0 | 3.0 | 0.00 | 0.00 | 0.00 | 96 | 1011.7 |
| 20260903064726 | 56 | 217 | 1.0 | 2.0 | 0.00 | 0.41 | 0.41 | 96 | 1011.8 |
| 20260903063225 | 56 | 246 | 2.0 | 2.0 | 0.00 | 0.41 | 0.41 | 96 | 1011.7 |
| 20260903061723 | 56 | 180 | 1.0 | 3.0 | 0.00 | 0.41 | 0.41 | 96 | 1011.9 |
| 20260903060223 | 56 | 187 | 1.0 | 1.0 | 0.00 | 0.41 | 0.41 | 95 | 1011.9 |
| 20260903054720 | 56 | 112 | 1.0 | 2.0 | 0.00 | 0.41 | 0.41 | 95 | 1011.8 |
| 20260903053218 | 57 | 157 | 2.0 | 2.0 | 0.00 | 0.41 | 0.41 | 95 | 1011.9 |
| 20260903051716 | 56 | 166 | 2.0 | 3.0 | 0.00 | 0.41 | 0.41 | 96 | 1011.8 |
| 20260903050212 | 56 | 180 | 3.0 | 3.0 | 0.00 | 0.41 | 0.41 | 97 | 1011.7 |
| 20260903044711 | 56 | 172 | 1.0 | 2.0 | 0.00 | 0.41 | 0.41 | 97 | 1011.6 |
| 20260903043208 | 56 | 272 | 2.0 | 2.0 | 0.00 | 0.41 | 0.41 | 98 | 1011.5 |
| 20260903041705 | 56 | 178 | 1.0 | 3.0 | 0.00 | 0.41 | 0.41 | 97 | 1011.3 |
| 20260903040201 | 57 | 247 | 1.0 | 2.0 | 0.00 | 0.41 | 0.41 | 96 | 1011.4 |
| 20260903034659 | 57 | 192 | 2.0 | 5.0 | 0.00 | 0.41 | 0.41 | 96 | 1011.3 |
| 20260903033155 | 57 | 184 | 2.0 | 2.0 | 0.00 | 0.41 | 0.41 | 95 | 1011.0 |
| 20260903031653 | 58 | 188 | 2.0 | 2.0 | 0.00 | 0.41 | 0.41 | 93 | 1011.1 |
| 20260903030150 | 58 | 179 | 1.0 | 2.0 | 0.00 | 0.41 | 0.41 | 92 | 1010.7 |
| 20260903024648 | 58 | 193 | 1.0 | 1.0 | 0.00 | 0.41 | 0.41 | 92 | 1010.6 |
| 20260903023143 | 58 | 175 | 0.0 | 1.0 | 0.00 | 0.41 | 0.41 | 91 | 1010.3 |
| 20260903021643 | 59 | 179 | 0.0 | 1.0 | 0.00 | 0.41 | 0.41 | 92 | 1010.5 |
| 20260903020139 | 59 | 180 | 3.0 | 3.0 | 0.00 | 0.41 | 0.41 | 91 | 1010.2 |
| 20260903014635 | 59 | 175 | 0.0 | 1.0 | 0.00 | 0.41 | 0.41 | 91 | 1009.8 |
| 20260903013130 | 58 | 165 | 2.0 | 3.0 | 0.00 | 0.41 | 0.41 | 92 | 1010.2 |
| 20260903011628 | 59 | 257 | 1.0 | 2.0 | 0.00 | 0.41 | 0.41 | 92 | 1009.9 |
| 20260903010128 | 60 | 192 | 1.0 | 1.0 | 0.00 | 0.41 | 0.41 | 94 | 1009.7 |
| 20260903004624 | 59 | 174 | 0.0 | 1.0 | 0.00 | 0.41 | 0.41 | 96 | 1009.7 |
| 20260903003122 | 59 | 183 | 1.0 | 1.0 | 0.00 | 0.41 | 0.41 | 97 | 1009.7 |
| 20260903001618 | 59 | 182 | 1.0 | 1.0 | 0.00 | 0.40 | 0.40 | 98 | 1009.5 |
| 20260903000113 | 58 | 198 | 1.0 | 1.0 | 0.00 | 0.40 | 0.40 | 97 | 1009.3 |
| 20260902234613 | 57 | 197 | 1.0 | 1.0 | 0.05 | 0.40 | 0.40 | 97 | 1009.4 |
| 20260902233113 | 58 | 224 | 1.0 | 2.0 | 0.47 | 0.38 | 0.38 | 96 | 1009.1 |
| 20260902231613 | 59 | 184 | 3.0 | 5.0 | 0.00 | 0.30 | 0.30 | 97 | 1008.9 |
| 20260902230112 | 59 | 182 | 3.0 | 3.0 | 0.00 | 0.30 | 0.30 | 97 | 1008.8 |
| 20260902224611 | 59 | 153 | 3.0 | 3.0 | 0.05 | 0.30 | 0.30 | 97 | 1008.7 |
| 20260902223109 | 60 | 163 | 7.0 | 10.0 | 0.07 | 0.28 | 0.28 | 96 | 1008.3 |
| 20260902221607 | 60 | 216 | 4.0 | 6.0 | 0.05 | 0.27 | 0.27 | 94 | 1008.4 |
| 20260902214601 | 60 | 235 | 6.0 | 9.0 | 0.00 | 0.26 | 0.26 | 90 | 1008.5 |
| 20260902213101 | 60 | 237 | 3.0 | 5.0 | 0.00 | 0.26 | 0.26 | 91 | 1008.5 |